Regional Weather Roundup
Issued by NWS

Home | Current Version | Previous Version | Text Only | Print | Product List | Glossary On
Versions: 1 2 3 4 5 6 7 8 9 10 11 12 13 14 15 16 17 18 19 20 21 22 23 24 25 26 27 28
000
ASUS42 KKEY 210210
RWRKEY

FLORIDA REGIONAL WEATHER ROUNDUP FOR THE FLORIDA KEYS
NATIONAL WEATHER SERVICE KEY WEST FLORIDA
1000 PM EDT FRI OCT 20 2017

...SOUTH FLORIDA AND THE KEYS...

CITY           SKY/WX    TMP DP  RH WIND       PRES   REMARKS
FORT MYERS     CLOUDY    73  73 100 NE6       30.05S
SW REGIONAL AP PTCLDY    75  75 100 NE7       30.06R
NAPLES         CLOUDY    77  72  84 NE13      30.04R
MIAMI          CLOUDY    82  74  76 NE15G22   30.03R
WEST KENDALL   PTCLDY    79  74  84 E9        30.02S
HOMESTEAD      LGT RAIN  77  75  94 E15G29    30.01S FOG
MARATHON       PTCLDY    83  73  72 E12       30.00R
KEY WEST INTL  CLEAR     82  75  79 E12       30.00R

...INTERNATIONAL WEATHER...

CITY           SKY/WX    TMP DP  RH WIND       PRES   REMARKS
NASSAU BAHAMAS PTCLDY    82  73  74 NE12      30.01R
CANCUN MEXICO  CLOUDY    79  79 100 NE3       29.94R
COZUMEL MEXICO CLOUDY    79  75  89 E3        29.92R

ADJACENT COASTAL WATERS...

STATION/POSITION TIME  SKY/WX   TEMP    WIND        PRES    WAVE
                                AIR SEA DIR/SP/G            HT/PER
                 (UTC)          (F)     (DEG/KT/KT) (MB)    (FT/S)
PULASKI SHOAL LI 0200            83     100/ 19/ 20 1015.5R
SAND KEY         0150            83                 1016.0R
LONG KEY         NOT AVBL
MOLASSES REEF    0200            82 83   80/ 22/ 24 1015.9R
FOWEY ROCKS      0200            82 83   70/ 25/ 27 1017.1R
Buoy 42097       0130               84                N/A     5/ 6

$$




USA.gov is the U.S. government's official web portal to all federal, state and local government web resources and services.